Lexington Weather

Lexington, Massachusetts, USA

34°F
4/16/2021 9:20am 
  • Lexington Conditions: Snow, Mist, Overcast
  • Temperature: 34.2°F / 1.2°CColder 3.9°F than last hour.
  • Dew Point: 32.9°FDecreased 4.0°Fsince last hour.
  • Relative Humidity: 95
  • Wind: Wind from N N Calm, 10-min avg: 1 mph, gust: 2 mph
  • Barometer: 29.48 inFalling 0.04  inHg/hr Falling Slowly
  • Visibility: ½ mile
  • Snow Today: 0.3 in
  •   

Regional Weather Roundup
for Boston / Norton, MA

        
000
ASUS41 KBOX 151604
RWRBOX

REGIONAL WEATHER ROUNDUP
NATIONAL WEATHER SERVICE BOSTON/NORTON MA
1200 PM EDT THU APR 15 2021

NOTE:  "FAIR" INDICATES FEW OR NO CLOUDS BELOW 12,000 FEET WITH NO 
SIGNIFICANT WEATHER AND/OR OBSTRUCTIONS TO VISIBILITY.

MAZALL-151700-
EASTERN MASSACHUSETTS
  
CITY           SKY/WX    TMP DP  RH WIND       PRES   REMARKS
BOSTON         CLOUDY    50  36  58 E18       29.87S                  
BEVERLY        NOT AVBL                                               
LAWRENCE       CLOUDY    50  28  42 VRB6G17   29.88R                  
BEDFORD        CLOUDY    51  35  54 E10       29.84S                  
BLUE HILL        N/A     51  30  44 VRB7      29.83S                  
NORWOOD        CLOUDY    55  24  30 SE12      29.84S                  
MARSHFIELD     MOSUNNY   50  37  62 SE9G16    29.87S                  
PLYMOUTH       CLOUDY    52  30  43 E12       29.85S                  
TAUNTON        NOT AVBL                                               
NEW BEDFORD    CLOUDY    50  33  52 SE13      29.84F                  
$$

MAZALL-151700-
CAPE COD AND THE ISLANDS
  
CITY           SKY/WX    TMP DP  RH WIND       PRES   REMARKS
FALMOUTH       PTSUNNY   48  34  57 SE12G21   29.87R                  
HYANNIS        MOSUNNY   48  37  65 E12G20    29.85R                  
CHATHAM        CLOUDY    46  37  71 E15       29.89F                  
PROVINCETOWN   PTSUNNY   49  35  58 E14       29.87F                  
NANTUCKET      MOSUNNY   49  38  65 E15       29.86F                  
MARTHAS VNYRD  CLOUDY    50  32  50 SE13      29.85F                  
$$
 
MAZALL-151700-
CENTRAL AND WESTERN MASSACHUSETTS
  
CITY           SKY/WX    TMP DP  RH WIND       PRES   REMARKS
WORCESTER      LGT RAIN  46  41  82 SE9       29.81F                  
FITCHBURG      LGT RAIN  50  40  68 S9        29.83F                  
ORANGE         LGT RAIN  48  45  89 SE8       29.80S FOG              
SPRINGFIELD    LGT RAIN  48  47  96 CALM      29.77F FOG              
WESTFIELD      RAIN      47  47 100 SE3       29.78F FOG              
NORTH ADAMS    LGT RAIN  48  47  96 VRB6      29.74F                  
PITTSFIELD     LGT RAIN  46  44  93 SE7       29.72F FOG              
$$
 
RIZALL-151700-
RHODE ISLAND
  
CITY           SKY/WX    TMP DP  RH WIND       PRES   REMARKS
PROVIDENCE     CLOUDY    50  34  54 SE12      29.84F                  
NEWPORT        CLOUDY    47  34  60 SE10      29.84F                  
BLOCK ISLAND   CLOUDY    46  37  71 SE15      29.82F                  
SMITHFIELD     CLOUDY    49  38  65 SE9       29.83F                  
WESTERLY       LGT RAIN  44  39  82 E12G20    29.82F                  
$$
 
CTZALL-151700-
CONNECTICUT
  
CITY           SKY/WX    TMP DP  RH WIND       PRES   REMARKS
BRADLEY INTL   LGT RAIN  49  46  90 SE7       29.78F FOG              
HARTFORD       LGT RAIN  50  47  89 SE3       29.78F FOG              
BRIDGEPORT     LGT RAIN  50  49  96 E6        29.76F FOG              
DANBURY        LGT RAIN  52  49  89 E5        29.75F FOG              
GROTON         CLOUDY    47  44  90 E13       29.80F                  
NEW HAVEN      RAIN      51  49  92 E9        29.77F FOG              
CHESTER        LGT RAIN  48  48 100 SE8       29.78F VSB<1/4          
MERIDEN        LGT RAIN  50  48  93 SE8       29.77F FOG              
WILLIMANTIC    LGT RAIN  48  46  93 SE5       29.80F FOG              
OXFORD         LGT RAIN  48  48 100 SE9       29.76F FOG              
$$

MEZ002-015-021-024-NHZ003-005-008-011-012-014-VTZ005-008-151700-
NORTHERN NEW ENGLAND
  
CITY           SKY/WX    TMP DP  RH WIND       PRES   REMARKS
PORTLAND ME    PTSUNNY   52  32  46 S12       29.91R                  
BANGOR ME      MOSUNNY   58  36  43 VRB6      29.88F                  
CONCORD NH     CLOUDY    51  32  48 SE8       29.84F                  
MANCHESTER NH  CLOUDY    53  24  32 SE10      29.83S                  
NASHUA NH      CLOUDY    53  28  38 E12       29.84F                  
PORTSMOUTH NH  CLOUDY    49  32  51 SE14      29.89F                  
JAFFREY NH     LGT RAIN  48  40  73 VRB5      29.80F                  
KEENE NH         N/A     50  42  74 SE7       29.80S                  
BURLINGTON VT  RAIN      50  45  83 SE9       29.73S                  
MT. WASHINGTON CLOUDY    30  25  80 SE36G44     N/A  VSB 1/4 WCI  14  
$$

NYZ052-076-151700-
EASTERN NEW YORK
  
CITY           SKY/WX    TMP DP  RH WIND       PRES   REMARKS
ALBANY         CLOUDY    50  44  80 SE15G23   29.71S                  
NEW YORK CITY  LGT RAIN  53  50  89 S8        29.73F FOG              
$$
 
ANZALL-151700-
MARINE OBSERVATIONS
  
STATION/POSITION TIME  TEMP    WIND        PRES    VSBY  WAVE
                       AIR SEA DIR/SP/G                  HT/PER
                 (UTC) (F)     (DEG/KT/KT) (MB)    (MI)  (FT/S)
BOSTON BUOY      1540   45 45  110/ 14/ 17 1011.8F
BUZZARDS BAY     1500          120/ 16/ 17 1011.7F
NANTUCKET SOUND  1540      47                N/A
MASS BAY-STELLWA 1504   45     120/ 14/ 17 1011.0F  1 7/8  5/11
ISLE OF SHOALS   1500   45     120/ 11/ 12 1012.0R
S OF BLOCK IS    1526      44                N/A           4/12
$$

......................KEY.........................
  SKY/WX - SKY CONDITION/PRESENT WEATHER
  TMP    - TEMPERATURE IN FAHRENHEIT
  DWPT   - DEWPOINT IN FAHRENHEIT
  RH     - RELATIVE HUMIDITY IN PERCENT
  WIND   - DIRECTION AND SPEED IN MPH
  PRES   - MEAN SEA LEVEL PRESSURE IN INCHES OF HG
  WCI    - WIND CHILL INDEX
  VSB    - VISIBILITY IN MILES
  HX     - HEAT INDEX
  TC     - TEMPERATURE IN CELSIUS
  VRB    - VARIABLE WIND DIRECTION
  N/A    - NOT AVAILABLE
  
      

Other recent Regional Weather Roundups

Fri Apr 16, 9:04am

Fri Apr 16, 8:04am

Fri Apr 16, 7:04am

Fri Apr 16, 6:04am

Fri Apr 16, 5:04am

Fri Apr 16, 4:04am

Fri Apr 16, 3:04am

Fri Apr 16, 2:04am

Fri Apr 16, 1:04am

Fri Apr 16, 12:04am

Thu Apr 15, 11:05pm

Thu Apr 15, 10:04pm

Thu Apr 15, 9:04pm

Thu Apr 15, 8:04pm

Thu Apr 15, 7:05pm

Thu Apr 15, 6:04pm

Thu Apr 15, 5:05pm

Thu Apr 15, 4:04pm

Thu Apr 15, 3:05pm

Thu Apr 15, 2:04pm

Thu Apr 15, 1:05pm

Thu Apr 15, 11:04am

Thu Apr 15, 10:05am

Thu Apr 15, 9:04am

Thu Apr 15, 8:04am

Thu Apr 15, 7:04am

Thu Apr 15, 6:04am

Thu Apr 15, 5:04am

Thu Apr 15, 4:04am

Thu Apr 15, 3:04am

Thu Apr 15, 2:04am

Thu Apr 15, 1:04am

Thu Apr 15, 12:04am

Wed Apr 14, 11:04pm

Wed Apr 14, 10:04pm

Wed Apr 14, 9:04pm

Wed Apr 14, 8:04pm

Wed Apr 14, 7:04pm

Wed Apr 14, 6:04pm

Wed Apr 14, 5:05pm

Wed Apr 14, 4:04pm

Wed Apr 14, 3:05pm

Wed Apr 14, 2:04pm

Wed Apr 14, 1:05pm

Wed Apr 14, 12:04pm

Wed Apr 14, 11:04am

Wed Apr 14, 10:04am

Wed Apr 14, 9:04am

Wed Apr 14, 8:04am

Wed Apr 14, 7:04am

Wed Apr 14, 6:04am

Wed Apr 14, 5:04am

Wed Apr 14, 4:04am

Wed Apr 14, 3:04am

Wed Apr 14, 2:04am

Wed Apr 14, 1:04am

Wed Apr 14, 12:04am

Tue Apr 13, 11:04pm

Tue Apr 13, 10:05pm

Tue Apr 13, 9:05pm

Tue Apr 13, 8:05pm

Tue Apr 13, 7:04pm

Tue Apr 13, 6:04pm

Tue Apr 13, 5:05pm

Tue Apr 13, 4:04pm

Tue Apr 13, 3:04pm

Tue Apr 13, 2:05pm

Tue Apr 13, 1:04pm

Tue Apr 13, 12:05pm

Tue Apr 13, 11:05am

Tue Apr 13, 10:04am

Tue Apr 13, 9:04am

Tue Apr 13, 8:04am

Tue Apr 13, 7:04am

Tue Apr 13, 6:04am

Tue Apr 13, 5:04am

Tue Apr 13, 4:04am

Tue Apr 13, 3:04am

Tue Apr 13, 2:04am

Tue Apr 13, 1:04am

Tue Apr 13, 12:05am

Mon Apr 12, 11:04pm

Mon Apr 12, 10:04pm

Mon Apr 12, 9:04pm

Mon Apr 12, 8:04pm

Mon Apr 12, 7:05pm

Mon Apr 12, 6:04pm

Mon Apr 12, 5:04pm

Mon Apr 12, 4:04pm

Mon Apr 12, 3:05pm

Mon Apr 12, 2:04pm

Mon Apr 12, 1:05pm

Mon Apr 12, 12:04pm

Mon Apr 12, 11:04am

Mon Apr 12, 10:04am

Mon Apr 12, 9:04am

Mon Apr 12, 8:04am

Mon Apr 12, 7:04am

Mon Apr 12, 6:04am

Mon Apr 12, 5:04am

Mon Apr 12, 4:04am

Mon Apr 12, 3:04am

Mon Apr 12, 2:04am

Mon Apr 12, 1:05am

Mon Apr 12, 12:04am

Sun Apr 11, 11:04pm

Sun Apr 11, 10:04pm

Sun Apr 11, 9:04pm

Sun Apr 11, 8:04pm

Sun Apr 11, 7:04pm

Sun Apr 11, 6:05pm

Sun Apr 11, 5:05pm

Sun Apr 11, 4:04pm

Sun Apr 11, 3:05pm

Sun Apr 11, 2:05pm

Sun Apr 11, 1:05pm

Sun Apr 11, 12:04pm

Sun Apr 11, 11:05am

Sun Apr 11, 10:05am

Sun Apr 11, 9:04am

Sun Apr 11, 8:04am

Sun Apr 11, 7:04am

Sun Apr 11, 6:04am

Sun Apr 11, 5:04am

Sun Apr 11, 4:04am

Sun Apr 11, 3:04am

Sun Apr 11, 2:04am

Sun Apr 11, 1:05am

Sun Apr 11, 12:04am

Sat Apr 10, 11:05pm

Sat Apr 10, 10:04pm

Sat Apr 10, 9:04pm

Sat Apr 10, 8:04pm

Sat Apr 10, 7:05pm

Sat Apr 10, 6:04pm

Sat Apr 10, 5:04pm

Sat Apr 10, 4:04pm

Sat Apr 10, 3:04pm

Sat Apr 10, 2:05pm

Sat Apr 10, 1:04pm

Sat Apr 10, 12:04pm

Sat Apr 10, 11:04am

Sat Apr 10, 10:04am

Sat Apr 10, 9:04am

Sat Apr 10, 8:04am

Sat Apr 10, 7:04am

Sat Apr 10, 6:04am

Sat Apr 10, 5:04am

Sat Apr 10, 4:04am

Sat Apr 10, 3:04am

Sat Apr 10, 2:04am

Sat Apr 10, 1:05am

Sat Apr 10, 12:04am

Fri Apr 9, 11:04pm

Fri Apr 9, 10:05pm

Fri Apr 9, 9:04pm

Fri Apr 9, 8:05pm

Fri Apr 9, 7:05pm

Fri Apr 9, 6:04pm

Fri Apr 9, 5:04pm

Fri Apr 9, 4:05pm

Fri Apr 9, 3:05pm

Fri Apr 9, 2:04pm

Fri Apr 9, 1:04pm

Fri Apr 9, 12:04pm

Fri Apr 9, 11:05am

Fri Apr 9, 10:04am

Fri Apr 9, 9:04am

Meta data:

ID: c3677a60-d986-4e54-8692-b7bc038251d4
Link: https://api.weather.gov/products/c3677a60-d986-4e54-8692-b7bc038251d4